Prescott, AZ

8:38 AM MST on September 22, 2017 (GMT -0700)
Love

Weather History for KPRC - July, 2013

Change the Weather History Date:

Monday, July 29, 2013

  Actual Average Record
Temperature  
Mean Temperature 74 °F 75 °F  
Max Temperature 86 °F 88 °F 102 °F (2016)
Min Temperature 62 °F 62 °F 55 °F (1973)
Degree Days  
Heating Degree Days 0    
Month to date heating degree days 0  
Since 1 July heating degree days 0  
Cooling Degree Days 9    
Month to date cooling degree days 349  
Year to date cooling degree days 708  
Growing Degree Days 24 (Base 50)    
Moisture  
Dew Point 48 °F    
Average Humidity 41    
Maximum Humidity 73    
Minimum Humidity 21    
Precipitation  
Precipitation 0.00 in 0.10 in 0.68 in (2017)
Month to date precipitation 3.31 1.93  
Year to date precipitation 5.83 6.86  
Sea Level Pressure  
Sea Level Pressure 29.92 in    
Wind  
Wind Speed 7 mph (South)    
Max Wind Speed 16 mph    
Max Gust Speed 22 mph    
Visibility 10 miles    
Events      
T = Trace of Precipitation, MM = Missing Value Source: NWS Daily Summary

Daily Weather History Graph

Daily Weather History Graph

Search for Another Location

Airport or City:

Trip Planner

Search our weather history database for the weather conditions in past years. The results will help you decide how hot, cold, wet, or windy it might be!

Date:

Astronomy

Jul. 29, 2013 Rise Set
Actual Time 5:37 AM MST 7:33 PM MST
Civil Twilight 5:09 AM MST 8:01 PM MST
Nautical Twilight 4:36 AM MST 8:35 PM MST
Astronomical Twilight 4:00 AM MST 9:11 PM MST
Moon 11:56 PM MST (7/29) 1:01 PM MST (7/29)
Length of Visible Light 14h 51m
Length of Day
13h 56m
Waning Gibbous, 50% of the Moon is Illuminated
Jul 29
Waning Gibbous
Aug 6
New
Aug 14
First Quarter
Aug 20
Full
Aug 28
Last Quarter

Hourly Weather History & Observations

Time (MST) Temp. Dew Point Humidity Pressure Visibility Wind Dir Wind Speed Gust Speed Precip Events Conditions
12:53 AM 66.9 °F 55.0 °F 66% 29.83 in 10.0 mi South 4.6 mph - N/A   Scattered Clouds
1:53 AM 70.0 °F 48.9 °F 47% 29.81 in 10.0 mi SSW 9.2 mph - N/A   Clear
2:53 AM 66.9 °F 52.0 °F 59% 29.83 in 10.0 mi Calm Calm - N/A   Clear
3:53 AM 64.9 °F 55.9 °F 73% 29.83 in 10.0 mi SSE 3.5 mph - N/A   Clear
4:53 AM 63.0 °F 53.1 °F 70% 29.86 in 10.0 mi SE 3.5 mph - N/A   Clear
5:53 AM 64.0 °F 52.0 °F 65% 29.91 in 10.0 mi Calm Calm - N/A   Clear
6:53 AM 68.0 °F 52.0 °F 56% 29.92 in 10.0 mi SSE 3.5 mph - N/A   Clear
7:53 AM 72.0 °F 52.0 °F 49% 29.92 in 10.0 mi SE 4.6 mph - N/A   Clear
8:53 AM 77.0 °F 48.9 °F 37% 29.93 in 10.0 mi South 6.9 mph - N/A   Clear
9:53 AM 80.1 °F 46.9 °F 31% 29.94 in 10.0 mi SSW 6.9 mph - N/A   Partly Cloudy
10:53 AM 82.0 °F 46.9 °F 29% 29.94 in 10.0 mi SSW 9.2 mph - N/A   Partly Cloudy
11:53 AM 84.0 °F 46.9 °F 27% 29.94 in 10.0 mi SW 11.5 mph 18.4 mph N/A   Scattered Clouds
12:53 PM 84.0 °F 50.0 °F 31% 29.94 in 10.0 mi South 10.4 mph 18.4 mph N/A   Scattered Clouds
1:53 PM 84.0 °F 50.0 °F 31% 29.93 in 10.0 mi South 9.2 mph 17.3 mph N/A   Scattered Clouds
2:53 PM 84.9 °F 48.0 °F 28% 29.93 in 10.0 mi SW 9.2 mph 18.4 mph N/A   Scattered Clouds
3:53 PM 86.0 °F 46.0 °F 25% 29.92 in 10.0 mi SSW 8.1 mph 19.6 mph N/A   Scattered Clouds
4:53 PM 86.0 °F 43.0 °F 22% 29.93 in 10.0 mi WSW 9.2 mph 18.4 mph N/A   Partly Cloudy
5:53 PM 84.9 °F 42.1 °F 22% 29.92 in 10.0 mi SW 13.8 mph 20.7 mph N/A   Scattered Clouds
6:53 PM 82.0 °F 42.1 °F 24% 29.93 in 10.0 mi SW 8.1 mph - N/A   Clear
7:53 PM 78.1 °F 44.1 °F 30% 29.94 in 10.0 mi South 4.6 mph - N/A   Clear
8:53 PM 75.0 °F 46.0 °F 36% 29.96 in 10.0 mi South 3.5 mph - N/A   Clear
9:53 PM 72.0 °F 46.9 °F 41% 29.99 in 10.0 mi South 5.8 mph - N/A   Clear
10:53 PM 69.1 °F 48.0 °F 47% 29.99 in 10.0 mi SSW 5.8 mph - N/A   Clear
11:53 PM 69.1 °F 46.9 °F 45% 29.99 in 10.0 mi South 4.6 mph - N/A   Clear